Location: Nitra
(0.0000°N, 18.0833°E)
Time: 04:47:10
(UTC+01:00)

SL-16 R/B - Pass Details

Date: 25 September 2022
Orbit: 842 x 845 km, 71.0° (Epoch: 01 December)

Event Time Altitude Azimuth Distance (km) Brightness Sun altitude
Rises 19:15:22 0° 158° (SSE) 3,397 5.1 -9.0°
Reaches altitude 10° 19:19:30 10° 129° (SE) 2,458 4.2 -10.1°
Maximum altitude 19:21:41 12° 106° (ESE) 2,297 3.9 -10.6°
Enters shadow 19:21:49 12° 105° (ESE) 2,298 3.9 -10.6°
